Retour au catalogue

QIANFAN-13

ActifCommunicationsPO
NORAD 60391·PAYLOAD·🇨🇳 China

Lancé Aug 6, 2024 depuis Taiyuan Satellite Launch Center

Loading…

Prochains Passages (prochaines 24 heures)

TLE

FraisSource: Space-Track

Époque: Sep 14, 2026, 21:33 UTC

1 60391U 24140N   26257.89816149  .00000017  00000-0  69054-5 0  9995
2 60391  88.9908 270.8287 0014731 125.2680 234.9851 13.51023687104550

Suivez QIANFAN-13 en temps réel avec AllMySat

Download on the App Store